DELTA 1 DEB, 3975

Orbit data source: Space-Track

DELTA 1 DEB, 3975 is space debris in SSO originally from a launch on Fri, 16 Aug 1968 UTC launched from the Air Force Western Test Range (AFWTR). Debris objects in space refer to the collection of defunct objects orbiting the Earth. Examples of debris include non-operational satellites, rocket bodies, and fragments generated from explosions, collisions, or faulty payload assembly.

Loading next visibility...
Identifier
3975, 1968-069F
Orbit
SSO
Last TLE update
6 days ago
Origin
Manufacturer
Unknown
Mission
Spacecraft
Bus & Motor
Unknown
Mass
Unknown
Launch date (UTC)
1968-08-16 (57 years ago)
Launch vehicle
Unknown
Launch site
Air Force Western Test Range (AFWTR)
Object type
Payload
Rocket body
Debris
Shape & HBR
Unknown
Radar Cross Section
Small (<0.1 m²)

Expand to show TLE details & history

TLE from 6 days ago
0 DELTA 1 DEB
1 03975U 68069F   25124.15149420 -.00000045  00000-0 -46669-5 0  9990
2 03975 101.5847 187.7126 0042684 240.0875 187.5374 12.53541368596759
Epoch: 2025-05-04T03:38Z
Definitive object data (Epoch: 2025-05-04T03:38:09.098Z)
Latitude
64.96917°
Longitude
-115.01148°
Altitude
1,493.894 km
Speed
7.108 km/s
True Right ascension
10h 47m 14s
True Declination
64° 50' 58"
Sunlit
Object was in daylight at TLE epoch
Visualization TLE readout
Latitude
76.75384°
Longitude
156.72319°
Altitude
1,484.907 km
Speed
7.118 km/s
Apparent Right ascension
23h 10m 11s
Apparent Declination
37° 15' 36"
Sunlit
Object is in daylight
Visualization observer readout
Local Sidereal Time
09:43:51
Azimuth
342.688° N
Elevation
-10.321°
Doppler factor
1
Orbital elements
Apogee altitude
1,480.652 km
Perigee altitude
1,413.848 km
Semi-major axis
7,825.387 km
Eccentricity
0.0042684
Inclination
101.5847°
RAAN
187.7126°
Arg. of periapsis
240.0875°
True anomaly
187.47358°
Mean anomaly
187.5374°
Eccentric anomaly
187.50546°
Mean motion
3.13534 °/min
BSTAR
-0.0000046669
Orbital period
114.82 mins
Loading maneuver chart data...
Loading SW <> Apogee altitude chart data...
Loading historical data...
Loading historical data...
Loading historical data...
Loading historical data...
Loading historical data...
Loading historical data...
Loading historical data...

DELTA 1 DEB Visibility forecast

Observer location: undefined°, undefined°

Span
Click to sort rows by Start time (UTC) header in descending order
Start Az.
Max El. time (UTC)
Max El. Az.
Max El.
End time (UTC)
End Az.
15 mins2025-05-10 03:02:53.490Z130.803° SE2025-05-10 03:09:53.490Z68.031° E36.011°2025-05-10 03:17:53.490Z354.171° N
13 mins2025-05-10 04:56:53.490Z199.898° SSW2025-05-10 05:02:53.490Z260.174° W33.009°2025-05-10 05:09:53.490Z325.682° NNW
4 mins2025-05-10 15:09:53.490Z78.745° E2025-05-10 15:10:53.490Z86.286° E12.173°2025-05-10 15:13:53.490Z108.467° ESE
15 mins2025-05-10 16:57:53.490Z21.666° NNE2025-05-10 17:04:53.490Z88.837° E43.769°2025-05-10 17:12:53.490Z190.419° SSW
11 mins2025-05-10 18:51:53.490Z350.475° N2025-05-10 18:56:53.490Z308.023° NW23.787°2025-05-10 19:02:53.490Z256.702° W
|